Showing default

OPS 0340, 2125

Orbit data source: Space-Track

OPS 0340, 2125 is a payload satellite owned by USAF SSD (US) in SSO that was launched on Thu, 31 Mar 1966 UTC via a THOR BURNER 1 launch vehicle from the Air Force Western Test Range (AFWTR). Payload-class satellites include a variety of spacecraft equipped with specific instruments for various scientific and technological missions. These include communications satellites like Starlink; space stations such as the ISS; scientific satellites like the Hubble; Earth observation satellites from companies like Planet Labs, Umbra, and HawkEye 360; GPS; miniature CubeSats for education and research; and military/defense satellites.

Loading next visibility...
Identifier
2125, 1966-026A
Orbit
SSO
Country
Flag of USUS
Related business
Manufacturer
RCA/East Windsor
Mission
Spacecraft
Bus & Motor
P35?, Unknown motor
Mass
72 kg wet, 72 kg dry
Launch date (UTC)
1966-03-31 (60 years ago)
Launch vehicle
THOR BURNER 1
Launch site
Air Force Western Test Range (AFWTR)
Object type
Payload
Rocket body
Debris
Shape & HBR
Unknown
Radar Cross Section
Medium (>0.1 m² and <1 m²)

Expand to show TLE details & history
Last TLE update: 19 hours ago

TLE from 19 hours ago
0 OPS 0340
1 02125U 66026A   25353.05196369  .00000501  00000-0  97677-4 0  9993
2 02125  98.0130 161.8561 0148336  89.8564 271.9634 14.60463409133259
Epoch: 2025-12-19T01:14Z
TLE epoch observation values (Epoch: 2025-12-19T01:14:49.662Z)
Latitude
-0.00003°
Longitude
55.25052°
Altitude
692.632 km
Speed
7.511 km/s
True Right ascension
10h 47m 25s
True Declination
0° 00' 00"
Sunlit
Object was in daylight at epoch
Visualization orbit readout
Latitude
Unknown
Longitude
Unknown
Altitude
Unknown
Speed
Unknown
Apparent Right ascension
Unknown
Apparent Declination
Unknown
Sunlit
N/A
Visualization observer readout
Local Sidereal Time
18:59:16
Azimuth
Unknown
Elevation
Unknown
Doppler factor
Unknown
Orbital elements
Apogee altitude
793.577 km
Perigee altitude
583.922 km
Semi-major axis
7,066.886 km
Eccentricity
0.01483
Inclination
98.013°
RAAN
161.8561°
Arg. of periapsis
89.8564°
True anomaly
270.26376°
Mean anomaly
271.9634°
Eccentric anomaly
271.11366°
Mean motion
3.65343 °/min
Orbital period
98.54 mins
BSTAR
0.000097677
Loading maneuver chart data...
Computing Atmospheric mass density...
Loading historical data...
Loading historical data...
Loading historical data...
Loading historical data...
Loading historical data...
Loading historical data...
Loading historical data...

Documentation

Showing up to 5 results
|